Satellite-Ground Cal/Val Site Overpasses Predictions

Prediction of Satellite NPP Overpassing Cal/Val Site: Antarctic Dome C

Ground Cal/Val Site Location: Latitude: -75.10, Longitude: 123.35; Satellite-Ground Site NADIR distance within 100 km.

Table of predicted overpasses for the next 14.0 days since TLE Epoch: 7/9/2022
Interval Starting Time Ending Time Minimum Distance Time Minimum Distance (km)
1 07/09/2022 07:19:12 07/09/2022 07:19:31 07/09/2022 07:19:22 75.32
2 07/11/2022 15:01:29 07/11/2022 15:01:53 07/11/2022 15:01:41 58.38
3 07/12/2022 14:42:40 07/12/2022 14:43:05 07/12/2022 14:42:53 50.64
4 07/13/2022 07:44:21 07/13/2022 07:44:42 07/13/2022 07:44:32 70.38
5 07/14/2022 07:25:30 07/14/2022 07:25:57 07/14/2022 07:25:44 37.50
6 07/16/2022 15:08:00 07/16/2022 15:08:06 07/16/2022 15:08:03 96.58
7 07/17/2022 14:48:59 07/17/2022 14:49:28 07/17/2022 14:49:13 14.81
8 07/19/2022 07:31:51 07/19/2022 07:32:20 07/19/2022 07:32:06 3.19
